map of SXM home
SXM - Airport
Location
City:  St. Maarten, Sint Maarten
Near (Alt.):Philipsburg
Name:Princess Juliana International Airport
ICAO:TNCM
IATA:SXM

Details
Type:Airport (Aerodrome, Airfield)
Use:Public/Civil, International (customs port of entry)
Latitude:1802'27"N (18.040953)
Longitude:6306'32"W (-63.108899)
Datum:WGS 1984
Elevation:14 ft (4 m)
Variation:14.33W (WMM2015 magnetic declination)
-0.03 annual change
Runways:1
Longest:7708 × 148 ft (2349 × 45 m), paved

Time
Time Zone:UTC-4
Local Time:

Weather
METAR:TNCM 220400Z 07009KT 040V110 9999 FEW022 25/20 Q1017 A3004
TAF:TNCM 212340Z 2200/2224 09008KT P6SM SCT018
FM221300 09015KT P6SM SCT020
FM222300 09008KT P6SM SCT018

Related Locations
Nearby:
Farthest:WHM: 12248 mi / 19711 km
Wickham, WA, AU

Find:

   beyond  
but within

Other Information
Maps:
NOTAMs:
Links:
Sources:

  
flag of Sint Maarten   

Airport Diagram

Airport diagram for SXM

Larger airport diagram (OBSOLETE) from NGA

Sectional Chart

Flight Planning
at skyvector.com

Satellite Image

Google Maps Satellite view

 

Copyright © 2004-2018 Karl L. Swartz. All rights reserved.
The Great Circle Mapper name and logo are trademarks of the Great Circle Mapper.
All other trademarks mentioned herein belong to their respective owners.
Please see credits for attibutions and further copyright information.

  Follow gcmap on Facebook Follow gcmap on Twitter Follow gcmap on Google+ GCmap on LinkedIn

hCard Microformat

Geo Microformat